Regional Weather Roundup
Issued by NWS

Home | Current Version | Previous Version | Graphics & Text | Print | Product List | Glossary On
Versions: 1 2 3 4 5 6 7 8 9 10 11 12 13 14 15 16 17 18 19 20 21 22 23 24 25 26 27 28 29 30 31 32 33 34 35 36 37 38 39 40 41 42 43 44 45 46 47 48 49 50
000
ASUS43 KMKX 130659
RWRWI

WISCONSIN REGIONAL WEATHER ROUNDUP
NATIONAL WEATHER SERVICE MILWAUKEE/SULLIVAN WI
100 AM CST SAT FEB 13 2016

NOTE: "FAIR" INDICATES FEW OR NO CLOUDS BELOW 12,000 FEET WITH NO
SIGNIFICANT WEATHER AND/OR OBSTRUCTIONS TO VISIBILITY.

WIZ001-002-006>008-014>016-023>028-130800-
NORTHWEST WISCONSIN

CITY           SKY/WX    TMP DP  RH WIND       PRES   REMARKS
SUPERIOR ARPT  CLOUDY    -6 -17  58 W6        30.63R WCI -18
ASHLAND        CLOUDY    -3  -8  79 W7        30.55R WCI -16
HAYWARD        CLOUDY    -8 -19  58 VRB5      30.52R WCI -19
SIREN          CLOUDY    -6 -17  57 NW6       30.59R WCI -18
CUMBERLAND     CLOUDY    -6 -18  54 NW12      30.52S WCI -24
RICE LAKE      CLOUDY    -4 -17  54 NW6       30.56R WCI -17
CHETEK         CLOUDY    -4 -16  57 NW5       30.54R WCI -15
LADYSMITH      CLOUDY    -5 -18  55 NW9       30.51R WCI -22
EAU CLAIRE     NOT AVBL
MENOMONIE      CLOUDY    -1 -15  49 W8        30.57R WCI -15
NEW RICHMOND   CLOUDY    -3 -15  57 NW8       30.59R WCI -18
OSCEOLA        CLOUDY    -2 -14  55 NW5       30.63S WCI -12
$$

WIZ003>005-009-010-017-018-130800-
NORTH CENTRAL WISCONSIN

CITY           SKY/WX    TMP DP  RH WIND       PRES   REMARKS
MANITOWISH WTR CLOUDY    -6 -11  78 NW9       30.36R HAZE    WCI -23
ARBOR VITAE    CLEAR     -4 -10  75 NW7       30.35S WCI -17
WOODRUFF       CLEAR     -4 -10  75 NW7       30.35S WCI -17
RHINELANDER    CLEAR     -7 -14  71 W10       30.35R WCI -25
EAGLE RIVER    CLEAR     -6 -12  75 W7        30.32S WCI -20
LAND O LAKES   CLEAR     -1  -6  81 NW7       30.32S WCI -15
PHILLIPS       CLOUDY   -10 -17  71 CALM      30.42R
TOMAHAWK       CLEAR     -7 -15  67 NW8       30.40R WCI -23
MEDFORD        CLOUDY    -6 -17  58 NW10      30.42R WCI -24
MERRILL        CLEAR     -4 -15  60 NW7       30.42R WCI -18
$$

WIZ029-030-035-036-043>047-130800-
CENTRAL WISCONSIN

CITY           SKY/WX    TMP DP  RH WIND       PRES   REMARKS
WAUSAU         CLEAR     -3 -15  56 NW13      30.43R WCI -22
MOSINEE        CLEAR     -4 -15  59 W12       30.44R WCI -22
MARSHFIELD     CLEAR     -5 -19  51 NW13      30.45R WCI -24
STEVENS POINT  CLEAR     -4 -18  52 W7        30.46R WCI -18
WAUPACA        PTCLDY     1 -15  48 W7        30.48R WCI -12
WAUTOMA        NOT AVBL
WISC RAPIDS    CLEAR     -2 -18  46 NW10      30.50R WCI -19
CAMP DOUGLAS   NOT AVBL
$$

WIZ011>013-019>022-031-037>040-048>050-130800-
NORTHEAST WISCONSIN

CITY           SKY/WX    TMP DP  RH WIND       PRES   REMARKS
ANTIGO         CLEAR     -8 -15  71 NW9       30.36R WCI -25
SHAWANO        PTCLDY     0 -12  56 W5        30.45S WCI -10
OCONTO         CLEAR     -3 -12  65 W9        30.44S WCI -19
STURGEON BAY   CLEAR     -2 N/A N/A W15       30.42R WCI -22
GREEN BAY      CLEAR     -2 -13  59 W9        30.45S WCI -18
MANITOWOC      NOT AVBL
APPLETON       CLEAR     -2 -15  55 W13       30.43R WCI -21
CLINTONVILLE   CLEAR      0 -15  50 W7        30.46R WCI -13
OSHKOSH        CLEAR     -1 -14  53 W13       30.46R WCI -19
$$

WIZ032>034-041-042-053>061-130800-
SOUTHWEST WISCONSIN

CITY           SKY/WX    TMP DP  RH WIND       PRES   REMARKS
LA CROSSE      CLOUDY    -2 -14  56 N8        30.58S WCI -17
SPARTA         CLOUDY     0 -13  53 NW8       30.55S WCI -14
VIROQUA        CLOUDY    -3 -15  58 NW8       30.50R WCI -18
BOSCOBEL       PTCLDY    -1 -12  59 CALM      30.59R
PRAIRIE DU CHI PTCLDY     1 -12  54 NW6       30.59R WCI -10
PLATTEVILLE    CLEAR      2  -9  58 NW6       30.53R WCI  -9
$$

WIZ056-057-062-063-064-067-068-130800-
SOUTH CENTRAL WISCONSIN

CITY           SKY/WX    TMP DP  RH WIND       PRES   REMARKS
REEDSBURG      CLEAR      0 -14  53 W3        30.52R
BARABOO/DELLS  CLEAR     -1 -16  49 NW5       30.51R WCI -11
LONE ROCK      NOT AVBL
MINERAL POINT  CLOUDY     3 -13  47 NW6       30.49S WCI  -8
MADISON        CLEAR      1 -14  49 NW9       30.51R WCI -14
MIDDLETON      CLEAR      3 -12  48 NW9       30.52R WCI -11
WATERTOWN      CLEAR      2 -11  55 NW8       30.48S WCI -12
MONROE         CLEAR      3  -9  55 NW6       30.49R WCI  -8
JANESVILLE     CLEAR      7  -9  47 N13G18    30.51R WCI  -9
$$

WIZ051-052-058>065-066-070>072-130800-
SOUTHEAST WISCONSIN

CITY           SKY/WX    TMP DP  RH WIND       PRES   REMARKS
MILWAUKEE      CLEAR      3 -12  49 NW10      30.48R WCI -12
WAUKESHA       CLEAR      1 -11  55 W9        30.47S WCI -14
MILWAUKEE/TIMM CLEAR      3 -13  47 NW13      30.48S WCI -14
RACINE         CLEAR      3 -13  47 NW12      30.49R WCI -13
BURLINGTON     CLEAR      1 -12  54 NW8       30.49R WCI -13
KENOSHA        CLEAR      3 -11  52 NW13      30.48R WCI -14
FOND DU LAC    CLEAR      0 -13  54 NW13      30.47R WCI -18
SHEBOYGAN      CLEAR      0 -12  57 NW12      30.45R WCI -17
WEST BEND      CLEAR      1 -13  51 W8        30.45R WCI -12
JUNEAU         CLEAR      0 -13  56 W8        30.48R WCI -15
$$

LSZ147-162-130800-
LAKE SUPERIOR

STATION/POSITION TIME  TEMP    WIND        PRES    WAVE
                       AIR SEA DIR/SP/G            HT/PER
                 (UTC) (F)     (DEG/KT/KT) (MB)    (FT/S)
DEVILS ISLAND    0600    1     340/ 19/ 24 1036.0R
SAXON HARBOR     0640    2                 1033.2R
$$

LMZ867-665-643>646-130800-
LAKE MICHIGAN

STATION/POSITION TIME  TEMP    WIND        PRES    WAVE
                       AIR SEA DIR/SP/G            HT/PER
                 (UTC) (F)     (DEG/KT/KT) (MB)    (FT/S)
CHAMBERS ISLAND  0600    1     290/  8/ 13 1029.1S
SISTER BAY       0505    2     310/ 21/ 25   N/A
ALGOMA LAKESHORE 0511          310/  6/  9   N/A
KEWAUNEE LAKESHO 0600    0     290/  8/ 11 1029.4R
SHEBOYGAN LAKESH 0600    2     290/ 15/ 17 1032.8R
PORT WASHINGTON  0600    3     300/  9/ 15 1032.2S
MILWAUKEE LAKESH 0610    5     310/ 10/ 15   N/A
KENOSHA   LAKESH 0600    5     320/ 12/ 19 1031.5R
$$

TC  - TEMPERATURE IN CELSIUS
VSB - VISIBILITY IN STATUTE MILES
WCI - WIND CHILL INDEX
HX  - HEAT INDEX




USA.gov is the U.S. government's official web portal to all federal, state and local government web resources and services.